Preview of NWS' New Version of Forecast
This preview is not operational and should not be used for support decisions.

Regional Weather Roundup (RWR)

Issued by National Weather Service (NWS)

                            
000
ASUS43 KMKX 261000
RWRWI 

WISCONSIN REGIONAL WEATHER ROUNDUP
NATIONAL WEATHER SERVICE MILWAUKEE/SULLIVAN WI
500 AM CDT SUN MAY 26 2019

NOTE: "FAIR" INDICATES FEW OR NO CLOUDS BELOW 12,000 FEET WITH NO
SIGNIFICANT WEATHER AND/OR OBSTRUCTIONS TO VISIBILITY.

WIZ001-002-006>008-014>016-023>028-261100-
NORTHWEST WISCONSIN
  
CITY           SKY/WX    TMP DP  RH WIND       PRES   REMARKS
SUPERIOR ARPT  FAIR      42  41  98 CALM      30.04R                  
ASHLAND        FAIR      43  42  97 S5        30.04R                  
HAYWARD        FAIR      39  37  92 CALM      30.05R                  
SIREN          FAIR      43  42  97 CALM      30.06R                  
CUMBERLAND     FAIR      45  43  93 CALM      30.05S                  
RICE LAKE      FAIR      46  41  82 CALM      30.07R                  
CHETEK         FAIR      44  44 100 CALM      30.06R                  
LADYSMITH      FAIR      43  42  97 CALM      30.07R FOG              
EAU CLAIRE     NOT AVBL                                               
MENOMONIE      FAIR      45  42  91 CALM      30.06R                  
NEW RICHMOND   FAIR      43  40  91 CALM      30.07R                  
OSCEOLA        FAIR      44  42  96 CALM      30.09R                  
$$
 
WIZ003>005-009-010-017-018-261100-
NORTH CENTRAL WISCONSIN
  
CITY           SKY/WX    TMP DP  RH WIND       PRES   REMARKS
MANITOWISH WTR FAIR      40  40 100 CALM      30.04S FOG              
ARBOR VITAE    FOG       43  40  92 CALM      30.04R VSB 1            
WOODRUFF       FOG       43  40  92 CALM      30.04R VSB 1            
RHINELANDER    FAIR      44  40  85 CALM      30.05R FOG              
EAGLE RIVER    FAIR      42  42  99 CALM      30.05R                  
LAND O LAKES   FAIR      41  41  99 CALM      30.06R                  
PHILLIPS       FAIR      40  40 100 CALM      30.05R FOG              
TOMAHAWK       FAIR      40  39  97 CALM      30.06R                  
MEDFORD        FAIR      44  43  98 CALM      30.05R                  
MERRILL        FAIR      44  44 100 CALM      30.06R FOG              
$$
 
WIZ029-030-035-036-043>047-261100-
CENTRAL WISCONSIN
  
CITY           SKY/WX    TMP DP  RH WIND       PRES   REMARKS
WAUSAU         FAIR      50  46  86 NW6       30.03R                  
MOSINEE        FAIR      50  46  87 N8        30.04F                  
MARSHFIELD     FAIR      50  46  86 N8        30.02F                  
STEVENS POINT  FAIR      47  47 100 NW6       30.03F                  
WAUPACA        FAIR      55  49  79 NW3       30.02S                  
WAUTOMA        FAIR      51  49  92 CALM      30.03R                  
WISC RAPIDS    FAIR      51  47  86 N3        30.03F                  
CAMP DOUGLAS   FAIR      50  50 100 CALM      30.03R                  
$$
 
WIZ011>013-019>022-031-037>040-048>050-261100-
NORTHEAST WISCONSIN
  
CITY           SKY/WX    TMP DP  RH WIND       PRES   REMARKS
ANTIGO         FAIR      43  43 100 CALM      30.05R                  
SHAWANO        FAIR      54  47  78 NW7       30.01F                  
OCONTO         FAIR      51  49  90 CALM      30.00S                  
STURGEON BAY   FAIR      51  47  86 CALM      30.01R                  
GREEN BAY      FAIR      54  49  83 NW3       30.00R                  
MANITOWOC      FAIR      52  49  89 CALM      30.00R                  
APPLETON       FAIR      54  43  66 NW7       29.99S                  
CLINTONVILLE   FAIR      55  46  71 CALM      30.01S                  
OSHKOSH        FAIR      55  49  80 W5        30.00S                  
$$
 
WIZ032>034-041-042-053>061-261100-
SOUTHWEST WISCONSIN
  
CITY           SKY/WX    TMP DP  RH WIND       PRES   REMARKS
LA CROSSE      FAIR      54  49  83 N6        30.03S                  
SPARTA         FAIR      44  44 100 CALM      30.04F                  
VIROQUA        FAIR      54  50  86 CALM      30.05R                  
BOSCOBEL       FAIR      55  52  89 CALM      30.04R                  
PRAIRIE DU CHI FAIR      56  52  85 CALM      30.04R                  
PLATTEVILLE    FAIR      59  55  87 N6        30.03S                  
$$

WIZ056-057-062-063-064-067-068-261100-
SOUTH CENTRAL WISCONSIN
  
CITY           SKY/WX    TMP DP  RH WIND       PRES   REMARKS
REEDSBURG      FAIR      54  53  98 CALM      30.04R                  
BARABOO/DELLS  FAIR      54  49  83 CALM      30.04R                  
LONE ROCK      NOT AVBL                                               
MINERAL POINT  FAIR      59  54  82 N5        30.03S                  
MADISON        FAIR      59  52  77 NW3       30.02R                  
MIDDLETON      FAIR      59  54  82 CALM      30.03R                  
WATERTOWN      FAIR      59  52  77 CALM      30.02R                  
MONROE         MOCLDY    62  51  66 N9        30.01R                  
JANESVILLE     CLOUDY    64  48  55 CALM      30.01R                  
$$
 
WIZ051-052-058>065-066-070>072-261100-
SOUTHEAST WISCONSIN
  
CITY           SKY/WX    TMP DP  RH WIND       PRES   REMARKS
MILWAUKEE      CLOUDY    64  48  56 N5        29.99R                  
WAUKESHA       FAIR      57  48  72 NW7       30.00S                  
MILWAUKEE/TIMM FAIR      59  46  63 NW6       30.00R                  
RACINE         CLOUDY    65  48  54 N9        30.00R                  
KENOSHA        CLOUDY    65  54  67 N5        29.99R                  
FOND DU LAC    FAIR      56  50  80 NW6       30.01R                  
SHEBOYGAN      FAIR      55  49  80 N5        29.99R                  
WEST BEND      FAIR      55  52  88 CALM      30.00R                  
JUNEAU         FAIR      57  50  78 CALM      30.03R                  
$$

LSZ147-162-261100-
LAKE SUPERIOR
  
STATION/POSITION TIME  TEMP    WIND        PRES    WAVE
                       AIR SEA DIR/SP/G            HT/PER
                 (UTC) (F)     (DEG/KT/KT) (MB)    (FT/S)
W MID LAKE BUOY  0850   41 37  260/  6/  6 1015.6R   1
$$
 
LMZ867-665-643>646-261100-
LAKE MICHIGAN
  
STATION/POSITION TIME  TEMP    WIND        PRES    WAVE
                       AIR SEA DIR/SP/G            HT/PER
                 (UTC) (F)     (DEG/KT/KT) (MB)    (FT/S)
N MID LAKE BUOY  0940   42 37  250/  6/  6 1015.9R
NORTHPORT PIER   0940   48      CALM  /  1 1015.9R
KEWAUNEE LAKESHO 0924   53     310/  2/  3 1014.9
SHEBOYGAN LAKESH 0900   59     340/  9/ 10 1014.7R
S MID LAKE BUOY  0940   46 40  350/  8/  8 1015.5R
KENOSHA   LAKESH 0900   64     360/ 10/ 12 1014.9
$$

TC  - TEMPERATURE IN CELSIUS
VSB - VISIBILITY IN STATUTE MILES
WCI - WIND CHILL INDEX
HX  - HEAT INDEX